Regional Weather Roundup
Issued by NWS Kansas City/Pleasant Hill, MO

Home | Current Version | Previous Version | Text Only | Print | Product List | Glossary On
Versions: 1 2 3 4 5 6 7 8 9 10 11 12 13 14 15 16 17 18 19 20 21 22 23 24 25 26 27 28 29 30 31 32 33 34 35 36 37 38 39 40 41 42 43 44 45 46 47 48 49 50
000
ASUS43 KEAX 281710
RWREAX

WEATHER ROUNDUP FOR EASTERN KANSAS AND NORTHWEST MISSOURI
NATIONAL WEATHER SERVICE KANSAS CITY/PLEASANT HILL MO
1200 PM CDT FRI AUG 28 2015

KSZ040-057-103>105-MOZ028-029-037-043-281800-
...KANSAS CITY METROPOLITAN AREA...

CITY           SKY/WX    TMP DP  RH WIND       PRES   REMARKS
K.C. INTL      CLOUDY    74  65  73 S15       29.96S
K.C. DOWNTOWN  CLOUDY    74  66  76 S15       29.96F
LEES SUMMIT    CLOUDY    73  64  73 S10       29.99F
OLATHE - IXD   CLOUDY    70  66  87 S15       29.98F
OLATHE - OJC   CLOUDY    70  65  84 S15G21    29.97F
LAWRENCE       CLOUDY    73  67  81 S17G23    29.95S

$$

MOZ001>008-011>017-020>025-030>033-038>040-044>046-053-054-281800-
...NORTHERN AND CENTRAL MISSOURI...

CITY           SKY/WX    TMP DP  RH WIND       PRES   REMARKS
ST. JOSEPH     CLOUDY    71  67  87 S13       29.94S
MOSBY          CLOUDY    72  64  78 SE7       29.97F
WARRENSBURG    CLOUDY    75  63  64 S10       30.01S
WHITEMAN AFB   PTSUNNY   77  64  63 SW14      30.01F
CLINTON          N/A     79  66  65 S10       30.03S
SEDALIA        CLOUDY    77  63  61 S13       30.04F
WARSAW         NOT AVBL
CHILLICOTHE      N/A     74  64  71 S7G16     30.00F
KIRKSVILLE     CLOUDY    69  60  73 S14       30.04S

$$

MOZ041-047>049-056>058-063>065-088>090-097-281800-
...EASTERN AND SOUTHERN MISSOURI...

CITY           SKY/WX    TMP DP  RH WIND       PRES   REMARKS
ST. LOUIS INTL CLOUDY    79  58  48 SE15      30.11F
SPIRIT OF STL  CLOUDY    77  60  55 VRB5      30.09F
COLUMBIA       CLOUDY    70  63  78 SE9       30.06F
JEFFERSON CITY CLOUDY    75  60  59 SE8       30.06S
ROLLA          PTSUNNY   76  60  57 S14G22    30.08F
OSAGE BEACH    PTSUNNY   77  61  57 S9G16     30.07F
SPRINGFIELD    PTSUNNY   75  61  61 S12       30.07S
BRANSON        MOSUNNY   77  63  61 S9        30.11S
JOPLIN         CLOUDY    76  65  68 S10       30.05S
WEST PLAINS    SUNNY     75  59  57 S9        30.13F

$$

IAZ060-094-KSZ022-034>040-054-083-096-NEZ052-066-093-281800-
...KANSAS...SOUTHEAST NEBRASKA AND IOWA...

CITY           SKY/WX    TMP DP  RH WIND       PRES   REMARKS
TOPEKA         PTSUNNY   79  68  69 S13       29.92F
MANHATTAN      MOSUNNY   84  69  60 SW16G29   29.88F
EMPORIA        MOSUNNY   78  68  71 S18G29    29.94S
CHANUTE        LGT RAIN  69  66  90 S15       30.00F
WICHITA        MOSUNNY   80  67  64 S15       29.95R
OMAHA          CLOUDY    74  68  81 S9        29.85R
LINCOLN        CLOUDY    76  68  76 W7        29.87S
FALLS CITY     PTSUNNY   79  67  66 S15G25    29.89S
LAMONI         CLOUDY    73  65  75 S12G25    29.95S
DES MOINES     LGT RAIN  67  62  84 SE17      29.92F

$$




USA.gov is the U.S. government's official web portal to all federal, state and local government web resources and services.